TimeCST,TemperatureF,Dew PointF,Humidity,Sea Level PressureIn,VisibilityMPH,Wind Direction,Wind SpeedMPH,Gust SpeedMPH,PrecipitationIn,Events,Conditions,WindDirDegrees,DateUTC
12:15 AM,53.8,41.2,62,30.13,10.0,South,9.2,-,N/A,,Overcast,190,2012-11-20 06:15:00
12:35 AM,53.6,41.5,64,30.13,10.0,South,8.1,-,N/A,,Overcast,180,2012-11-20 06:35:00
12:55 AM,53.4,41.4,64,30.12,10.0,South,8.1,-,N/A,,Overcast,190,2012-11-20 06:55:00
1:15 AM,52.9,41.9,66,30.12,10.0,South,8.1,-,N/A,,Overcast,190,2012-11-20 07:15:00
1:35 AM,53.6,41.4,63,30.12,10.0,SSW,6.9,-,N/A,,Overcast,200,2012-11-20 07:35:00
1:55 AM,53.6,41.9,65,30.12,10.0,SSW,5.8,-,N/A,,Overcast,200,2012-11-20 07:55:00
2:15 AM,53.6,42.1,65,30.12,10.0,SSW,4.6,-,N/A,,Overcast,200,2012-11-20 08:15:00
2:35 AM,53.1,42.3,67,30.12,10.0,SSW,5.8,-,N/A,,Overcast,200,2012-11-20 08:35:00
5:15 AM,51.8,42.8,71,30.10,10.0,SW,4.6,-,N/A,,Overcast,220,2012-11-20 11:15:00
6:15 AM,47.7,40.8,77,30.10,10.0,South,4.6,-,N/A,,Clear,180,2012-11-20 12:15:00
6:35 AM,46.4,40.6,80,30.10,10.0,Calm,Calm,-,N/A,,Clear,0,2012-11-20 12:35:00
6:55 AM,45.5,40.6,83,30.10,10.0,SSE,3.5,-,N/A,,Clear,160,2012-11-20 12:55:00
7:15 AM,47.3,40.8,78,30.10,10.0,SSE,4.6,-,N/A,,Clear,160,2012-11-20 13:15:00
7:35 AM,46.8,41.0,80,30.10,10.0,South,3.5,-,N/A,,Clear,180,2012-11-20 13:35:00
7:55 AM,50.2,43.2,77,30.11,10.0,South,3.5,-,N/A,,Clear,190,2012-11-20 13:55:00
8:15 AM,52.7,43.7,71,30.12,10.0,SSW,4.6,-,N/A,,Clear,210,2012-11-20 14:15:00
8:35 AM,54.0,43.9,69,30.12,10.0,SW,5.8,-,N/A,,Clear,230,2012-11-20 14:35:00
8:55 AM,54.9,44.1,67,30.12,10.0,SW,8.1,-,N/A,,Clear,230,2012-11-20 14:55:00
9:15 AM,55.4,44.8,67,30.11,10.0,WSW,6.9,-,N/A,,Clear,250,2012-11-20 15:15:00
9:35 AM,55.4,44.8,67,30.11,10.0,WSW,5.8,-,N/A,,Clear,250,2012-11-20 15:35:00
9:55 AM,56.5,45.1,66,30.12,10.0,West,5.8,-,N/A,,Clear,260,2012-11-20 15:55:00
10:15 AM,56.8,45.1,65,30.12,10.0,WSW,3.5,-,N/A,,Clear,250,2012-11-20 16:15:00
10:35 AM,57.7,45.5,64,30.11,10.0,Calm,Calm,-,N/A,,Clear,0,2012-11-20 16:35:00
10:55 AM,58.3,46.2,64,30.11,10.0,Calm,Calm,-,N/A,,Clear,0,2012-11-20 16:55:00
11:15 AM,58.3,46.2,64,30.10,10.0,Calm,Calm,-,N/A,,Unknown,0,2012-11-20 17:15:00
11:35 AM,58.1,46.0,64,30.09,10.0,Calm,Calm,-,N/A,,Unknown,0,2012-11-20 17:35:00
11:55 AM,59.4,46.8,63,30.08,10.0,Calm,Calm,-,N/A,,Unknown,0,2012-11-20 17:55:00
12:15 PM,59.2,47.1,64,30.08,10.0,Calm,Calm,-,N/A,,Unknown,0,2012-11-20 18:15:00
12:35 PM,59.4,47.1,64,30.08,10.0,Calm,Calm,-,N/A,,Mostly Cloudy,0,2012-11-20 18:35:00
12:55 PM,60.3,47.7,63,30.07,10.0,Calm,Calm,-,N/A,,Unknown,0,2012-11-20 18:55:00
1:15 PM,60.8,47.7,62,30.07,10.0,Calm,Calm,-,N/A,,Unknown,0,2012-11-20 19:15:00
1:35 PM,60.8,47.8,62,30.07,10.0,Calm,Calm,-,N/A,,Overcast,0,2012-11-20 19:35:00
1:55 PM,60.8,47.5,62,30.07,10.0,Calm,Calm,-,N/A,,Overcast,0,2012-11-20 19:55:00
2:15 PM,60.8,47.7,62,30.07,10.0,Calm,Calm,-,N/A,,Mostly Cloudy,0,2012-11-20 20:15:00
2:35 PM,61.7,48.4,62,30.07,10.0,Calm,Calm,-,N/A,,Scattered Clouds,0,2012-11-20 20:35:00
2:55 PM,61.3,48.0,62,30.07,10.0,Calm,Calm,-,N/A,,Clear,0,2012-11-20 20:55:00
3:15 PM,61.3,48.7,63,30.07,10.0,West,3.5,-,N/A,,Clear,280,2012-11-20 21:15:00
3:35 PM,60.8,48.9,65,30.09,10.0,WNW,4.6,-,N/A,,Clear,300,2012-11-20 21:35:00
3:55 PM,60.3,49.3,67,30.09,10.0,NW,5.8,-,N/A,,Scattered Clouds,320,2012-11-20 21:55:00
4:15 PM,59.0,49.3,70,30.10,10.0,NW,8.1,-,N/A,,Overcast,310,2012-11-20 22:15:00
4:35 PM,58.8,49.1,70,30.10,10.0,NW,3.5,-,N/A,,Overcast,310,2012-11-20 22:35:00
4:55 PM,57.7,49.1,73,30.11,10.0,NNW,5.8,-,N/A,,Overcast,330,2012-11-20 22:55:00
5:15 PM,56.8,48.7,74,30.11,10.0,NNW,4.6,-,N/A,,Overcast,330,2012-11-20 23:15:00
5:35 PM,56.7,48.7,75,30.12,10.0,NW,4.6,-,N/A,,Overcast,310,2012-11-20 23:35:00
5:55 PM,57.2,48.2,72,30.13,10.0,NW,4.6,-,N/A,,Overcast,310,2012-11-20 23:55:00
6:15 PM,56.7,48.4,74,30.13,10.0,NW,4.6,-,N/A,,Overcast,310,2012-11-21 00:15:00
6:35 PM,56.7,48.4,74,30.14,10.0,NW,5.8,-,N/A,,Overcast,320,2012-11-21 00:35:00
6:55 PM,56.3,48.6,75,30.15,10.0,NW,5.8,-,N/A,,Overcast,320,2012-11-21 00:55:00
7:15 PM,56.7,48.6,74,30.15,10.0,NW,5.8,-,N/A,,Overcast,320,2012-11-21 01:15:00
7:35 PM,56.8,48.7,74,30.15,10.0,NW,4.6,-,N/A,,Overcast,320,2012-11-21 01:35:00
7:55 PM,56.5,49.1,76,30.16,10.0,NNW,4.6,-,N/A,,Overcast,330,2012-11-21 01:55:00
8:15 PM,56.3,49.1,77,30.16,10.0,NW,4.6,-,N/A,,Overcast,320,2012-11-21 02:15:00
8:35 PM,55.8,49.1,78,30.16,10.0,NW,5.8,-,N/A,,Overcast,320,2012-11-21 02:35:00
8:55 PM,55.8,49.1,78,30.17,10.0,NNW,3.5,-,N/A,,Overcast,330,2012-11-21 02:55:00
9:15 PM,55.2,49.1,80,30.17,10.0,Calm,Calm,-,N/A,,Overcast,0,2012-11-21 03:15:00
9:35 PM,55.4,49.1,79,30.18,10.0,NW,3.5,-,N/A,,Overcast,310,2012-11-21 03:35:00
9:55 PM,54.7,49.1,81,30.18,10.0,Calm,Calm,-,N/A,,Overcast,0,2012-11-21 03:55:00
10:15 PM,54.9,49.1,81,30.18,10.0,Calm,Calm,-,N/A,,Overcast,0,2012-11-21 04:15:00
10:35 PM,54.3,49.1,83,30.18,10.0,Calm,Calm,-,N/A,,Overcast,0,2012-11-21 04:35:00
10:55 PM,54.0,48.7,82,30.17,10.0,Calm,Calm,-,N/A,,Overcast,0,2012-11-21 04:55:00
11:15 PM,53.2,48.4,84,30.17,7.0,Calm,Calm,-,N/A,,Overcast,0,2012-11-21 05:15:00
11:35 PM,52.5,48.4,86,30.18,7.0,Calm,Calm,-,N/A,,Scattered Clouds,0,2012-11-21 05:35:00
11:55 PM,51.8,48.0,87,30.18,7.0,Calm,Calm,-,N/A,,Scattered Clouds,0,2012-11-21 05:55:00